Time,TemperatureF,DewpointF,PressureIn,WindDirection,WindDirectionDegrees,WindSpeedMPH,WindSpeedGustMPH,Humidity,HourlyPrecipIn,Conditions,Clouds,dailyrainin,SolarRadiationWatts/m^2,SoftwareType,DateUTC
2015-03-31 00:00:00,58.5,54.3,29.99,West,273,2.0,-999.0,86,0.00,,,0.00,0,WeatherHawk,2015-03-31 07:00:00,
2015-03-31 00:05:00,59.7,55.8,29.99,West,263,4.0,-999.0,87,0.00,,,0.00,0,WeatherHawk,2015-03-31 07:05:00,
2015-03-31 00:10:00,60.1,56.2,29.99,WNW,302,1.0,-999.0,87,0.00,,,0.00,0,WeatherHawk,2015-03-31 07:10:00,
2015-03-31 00:15:00,60.3,56.1,29.99,NW,318,6.0,-999.0,86,0.00,,,0.00,0,WeatherHawk,2015-03-31 07:15:00,
2015-03-31 00:20:00,60.3,56.1,29.99,NW,304,3.0,-999.0,86,0.00,,,0.00,2,WeatherHawk,2015-03-31 07:20:00,
2015-03-31 00:25:00,59.9,55.7,29.99,NW,325,3.0,-999.0,86,0.00,,,0.00,1,WeatherHawk,2015-03-31 07:25:00,
2015-03-31 00:30:00,60.1,55.6,29.99,NW,316,3.0,-999.0,85,0.00,,,0.00,0,WeatherHawk,2015-03-31 07:30:00,
2015-03-31 00:35:00,59.9,55.4,29.99,NW,309,3.0,-999.0,85,0.00,,,0.00,0,WeatherHawk,2015-03-31 07:35:00,
2015-03-31 00:40:00,60.1,55.6,29.99,NNW,346,4.0,-999.0,85,0.00,,,0.00,0,WeatherHawk,2015-03-31 07:40:00,
2015-03-31 00:45:00,60.1,55.6,29.99,WNW,303,3.0,-999.0,85,0.00,,,0.00,0,WeatherHawk,2015-03-31 07:45:00,
2015-03-31 00:50:00,60.3,55.7,29.99,NW,315,4.0,-999.0,85,0.00,,,0.00,1,WeatherHawk,2015-03-31 07:50:00,
2015-03-31 00:55:00,60.3,55.7,29.99,NNW,338,5.0,-999.0,85,0.00,,,0.00,0,WeatherHawk,2015-03-31 07:55:00,
2015-03-31 01:00:00,60.3,55.4,29.99,NNW,329,5.0,-999.0,84,0.00,,,0.00,1,WeatherHawk,2015-03-31 08:00:00,
2015-03-31 01:05:00,60.3,55.4,29.99,NNW,330,2.0,-999.0,84,0.00,,,0.00,0,WeatherHawk,2015-03-31 08:05:00,
2015-03-31 01:10:00,60.3,55.4,29.99,West,263,6.0,-999.0,84,0.00,,,0.00,0,WeatherHawk,2015-03-31 08:10:00,
2015-03-31 01:15:00,60.3,55.1,29.99,NNW,340,4.0,-999.0,83,0.00,,,0.00,0,WeatherHawk,2015-03-31 08:15:00,
2015-03-31 01:20:00,60.1,54.9,29.99,NNW,338,5.0,-999.0,83,0.00,,,0.00,0,WeatherHawk,2015-03-31 08:20:00,
2015-03-31 01:25:00,60.1,54.9,29.99,NNW,334,2.0,-999.0,83,0.00,,,0.00,1,WeatherHawk,2015-03-31 08:25:00,
2015-03-31 01:30:00,60.1,54.9,29.99,WNW,286,3.0,-999.0,83,0.00,,,0.00,1,WeatherHawk,2015-03-31 08:30:00,
2015-03-31 01:35:00,60.3,55.1,29.99,NW,316,4.0,-999.0,83,0.00,,,0.00,1,WeatherHawk,2015-03-31 08:35:00,
2015-03-31 01:40:00,60.3,55.1,29.99,NW,321,3.0,-999.0,83,0.00,,,0.00,0,WeatherHawk,2015-03-31 08:40:00,
2015-03-31 01:45:00,60.3,55.1,29.99,WNW,294,2.0,-999.0,83,0.00,,,0.00,0,WeatherHawk,2015-03-31 08:45:00,
2015-03-31 01:50:00,60.4,55.2,29.99,NNW,345,2.0,-999.0,83,0.00,,,0.00,0,WeatherHawk,2015-03-31 08:50:00,
2015-03-31 01:55:00,60.4,54.9,29.99,WSW,257,1.0,-999.0,82,0.00,,,0.00,0,WeatherHawk,2015-03-31 08:55:00,
2015-03-31 02:00:00,60.4,54.9,29.99,NNW,339,2.0,-999.0,82,0.00,,,0.00,0,WeatherHawk,2015-03-31 09:00:00,
2015-03-31 02:05:00,60.4,54.9,29.99,WNW,286,4.0,-999.0,82,0.00,,,0.00,0,WeatherHawk,2015-03-31 09:05:00,
2015-03-31 02:10:00,60.3,54.7,29.99,NW,310,3.0,-999.0,82,0.00,,,0.00,1,WeatherHawk,2015-03-31 09:10:00,
2015-03-31 02:15:00,60.1,54.6,29.99,NW,316,3.0,-999.0,82,0.00,,,0.00,0,WeatherHawk,2015-03-31 09:15:00,
2015-03-31 02:20:00,60.3,54.7,29.99,NW,315,1.0,-999.0,82,0.00,,,0.00,0,WeatherHawk,2015-03-31 09:20:00,
2015-03-31 02:25:00,60.1,54.6,29.99,North,357,2.0,-999.0,82,0.00,,,0.00,0,WeatherHawk,2015-03-31 09:25:00,
2015-03-31 02:30:00,60.1,54.9,29.98,NE,43,2.0,-999.0,83,0.00,,,0.00,0,WeatherHawk,2015-03-31 09:30:00,
2015-03-31 02:35:00,60.1,54.9,29.98,NE,47,2.0,-999.0,83,0.00,,,0.00,1,WeatherHawk,2015-03-31 09:35:00,
2015-03-31 02:40:00,60.1,54.9,29.98,North,1,1.0,-999.0,83,0.00,,,0.00,0,WeatherHawk,2015-03-31 09:40:00,
2015-03-31 02:45:00,59.9,54.7,29.98,ENE,75,2.0,-999.0,83,0.00,,,0.00,2,WeatherHawk,2015-03-31 09:45:00,
2015-03-31 02:50:00,59.9,54.7,29.98,North,354,3.0,-999.0,83,0.00,,,0.00,0,WeatherHawk,2015-03-31 09:50:00,
2015-03-31 02:55:00,59.7,54.5,29.98,NNW,336,1.0,-999.0,83,0.00,,,0.00,0,WeatherHawk,2015-03-31 09:55:00,
2015-03-31 03:00:00,59.9,54.7,29.97,North,358,2.0,-999.0,83,0.00,,,0.00,2,WeatherHawk,2015-03-31 10:00:00,
2015-03-31 03:05:00,59.7,54.5,29.97,NNW,327,4.0,-999.0,83,0.00,,,0.00,0,WeatherHawk,2015-03-31 10:05:00,
2015-03-31 03:10:00,59.5,54.4,29.97,North,1,1.0,-999.0,83,0.00,,,0.00,0,WeatherHawk,2015-03-31 10:10:00,
2015-03-31 03:15:00,59.7,54.5,29.97,NW,322,2.0,-999.0,83,0.00,,,0.00,0,WeatherHawk,2015-03-31 10:15:00,
2015-03-31 03:20:00,59.5,54.4,29.97,ENE,69,2.0,-999.0,83,0.00,,,0.00,0,WeatherHawk,2015-03-31 10:20:00,
2015-03-31 03:25:00,59.5,54.4,29.96,NNW,342,1.0,-999.0,83,0.00,,,0.00,0,WeatherHawk,2015-03-31 10:25:00,
2015-03-31 03:30:00,59.5,54.4,29.96,ENE,61,4.0,-999.0,83,0.00,,,0.00,0,WeatherHawk,2015-03-31 10:30:00,
2015-03-31 03:35:00,59.4,54.2,29.96,NE,52,3.0,-999.0,83,0.00,,,0.00,1,WeatherHawk,2015-03-31 10:35:00,
2015-03-31 03:40:00,59.2,54.3,29.96,ENE,67,4.0,-999.0,84,0.00,,,0.00,1,WeatherHawk,2015-03-31 10:40:00,
2015-03-31 03:45:00,58.8,54.3,29.96,East,97,1.0,-999.0,85,0.00,,,0.00,0,WeatherHawk,2015-03-31 10:45:00,
2015-03-31 03:50:00,58.8,54.3,29.96,ENE,60,4.0,-999.0,85,0.00,,,0.00,1,WeatherHawk,2015-03-31 10:50:00,
2015-03-31 03:55:00,58.6,54.5,29.96,ESE,112,3.0,-999.0,86,0.00,,,0.00,0,WeatherHawk,2015-03-31 10:55:00,
2015-03-31 04:00:00,58.6,54.5,29.96,ESE,119,2.0,-999.0,86,0.00,,,0.00,0,WeatherHawk,2015-03-31 11:00:00,
2015-03-31 04:05:00,58.6,54.5,29.96,ESE,116,1.0,-999.0,86,0.00,,,0.00,0,WeatherHawk,2015-03-31 11:05:00,
2015-03-31 04:10:00,58.8,54.6,29.96,NNE,18,1.0,-999.0,86,0.00,,,0.00,0,WeatherHawk,2015-03-31 11:10:00,
2015-03-31 04:15:00,58.8,54.6,29.96,WSW,255,2.0,-999.0,86,0.00,,,0.00,0,WeatherHawk,2015-03-31 11:15:00,
2015-03-31 04:20:00,59.0,54.8,29.96,ENE,77,2.0,-999.0,86,0.00,,,0.00,0,WeatherHawk,2015-03-31 11:20:00,
2015-03-31 04:25:00,58.8,54.6,29.96,SSE,160,2.0,-999.0,86,0.00,,,0.00,0,WeatherHawk,2015-03-31 11:25:00,
2015-03-31 04:30:00,58.8,54.6,29.95,SE,129,2.0,-999.0,86,0.00,,,0.00,1,WeatherHawk,2015-03-31 11:30:00,
2015-03-31 04:35:00,59.0,54.8,29.96,SSE,160,2.0,-999.0,86,0.00,,,0.00,0,WeatherHawk,2015-03-31 11:35:00,
2015-03-31 04:40:00,59.0,54.8,29.96,ENE,78,2.0,-999.0,86,0.00,,,0.00,1,WeatherHawk,2015-03-31 11:40:00,
2015-03-31 04:45:00,59.0,54.8,29.96,East,80,2.0,-999.0,86,0.00,,,0.00,0,WeatherHawk,2015-03-31 11:45:00,
2015-03-31 04:50:00,58.8,54.3,29.95,East,86,1.0,-999.0,85,0.00,,,0.00,0,WeatherHawk,2015-03-31 11:50:00,
2015-03-31 04:55:00,58.6,54.5,29.95,East,83,4.0,-999.0,86,0.00,,,0.00,0,WeatherHawk,2015-03-31 11:55:00,
2015-03-31 05:00:00,58.6,54.5,29.95,SE,125,5.0,-999.0,86,0.00,,,0.00,0,WeatherHawk,2015-03-31 12:00:00,
2015-03-31 05:05:00,58.5,54.3,29.95,SSE,148,1.0,-999.0,86,0.00,,,0.00,0,WeatherHawk,2015-03-31 12:05:00,
2015-03-31 05:10:00,58.5,54.3,29.96,ENE,78,3.0,-999.0,86,0.00,,,0.00,0,WeatherHawk,2015-03-31 12:10:00,
2015-03-31 05:15:00,58.6,54.5,29.96,East,93,2.0,-999.0,86,0.00,,,0.00,0,WeatherHawk,2015-03-31 12:15:00,
2015-03-31 05:20:00,58.5,54.3,29.95,East,83,3.0,-999.0,86,0.00,,,0.00,0,WeatherHawk,2015-03-31 12:20:00,
2015-03-31 05:25:00,58.5,54.3,29.95,ENE,67,2.0,-999.0,86,0.00,,,0.00,0,WeatherHawk,2015-03-31 12:25:00,
2015-03-31 05:30:00,58.3,54.1,29.95,ESE,113,2.0,-999.0,86,0.00,,,0.00,0,WeatherHawk,2015-03-31 12:30:00,
2015-03-31 05:35:00,58.3,54.1,29.95,SE,129,2.0,-999.0,86,0.00,,,0.00,0,WeatherHawk,2015-03-31 12:35:00,
2015-03-31 05:40:00,58.1,53.9,29.95,SSE,148,4.0,-999.0,86,0.00,,,0.00,0,WeatherHawk,2015-03-31 12:40:00,
2015-03-31 05:45:00,58.1,53.9,29.95,South,185,0.0,-999.0,86,0.00,,,0.00,2,WeatherHawk,2015-03-31 12:45:00,
2015-03-31 05:50:00,58.1,53.9,29.95,ESE,106,1.0,-999.0,86,0.00,,,0.00,1,WeatherHawk,2015-03-31 12:50:00,
2015-03-31 05:55:00,58.1,53.9,29.95,SSW,203,3.0,-999.0,86,0.00,,,0.00,0,WeatherHawk,2015-03-31 12:55:00,
2015-03-31 06:00:00,58.1,53.9,29.95,SW,230,2.0,-999.0,86,0.00,,,0.00,0,WeatherHawk,2015-03-31 13:00:00,
2015-03-31 06:05:00,58.1,53.9,29.95,WSW,253,3.0,-999.0,86,0.00,,,0.00,0,WeatherHawk,2015-03-31 13:05:00,
2015-03-31 06:10:00,57.9,53.8,29.95,South,186,3.0,-999.0,86,0.00,,,0.00,0,WeatherHawk,2015-03-31 13:10:00,
2015-03-31 06:15:00,58.1,53.9,29.95,WSW,241,1.0,-999.0,86,0.00,,,0.00,2,WeatherHawk,2015-03-31 13:15:00,
2015-03-31 06:25:00,58.1,53.6,29.95,ESE,115,1.0,-999.0,85,0.00,,,0.00,0,WeatherHawk,2015-03-31 13:25:00,
2015-03-31 06:30:00,58.1,53.6,29.95,ENE,67,3.0,-999.0,85,0.00,,,0.00,1,WeatherHawk,2015-03-31 13:30:00,
2015-03-31 06:35:00,58.1,53.9,29.95,SSW,199,1.0,-999.0,86,0.00,,,0.00,3,WeatherHawk,2015-03-31 13:35:00,
2015-03-31 06:40:00,58.1,53.9,29.95,SSW,207,2.0,-999.0,86,0.00,,,0.00,2,WeatherHawk,2015-03-31 13:40:00,
2015-03-31 06:45:00,58.3,54.1,29.95,SW,221,4.0,-999.0,86,0.00,,,0.00,4,WeatherHawk,2015-03-31 13:45:00,
2015-03-31 06:50:00,58.3,53.8,29.96,SW,223,4.0,-999.0,85,0.00,,,0.00,5,WeatherHawk,2015-03-31 13:50:00,
2015-03-31 06:55:00,58.3,53.8,29.96,SW,216,4.0,-999.0,85,0.00,,,0.00,8,WeatherHawk,2015-03-31 13:55:00,
2015-03-31 07:00:00,58.3,53.8,29.96,West,259,4.0,-999.0,85,0.00,,,0.00,13,WeatherHawk,2015-03-31 14:00:00,
2015-03-31 07:05:00,58.3,53.8,29.96,WSW,238,3.0,-999.0,85,0.00,,,0.00,18,WeatherHawk,2015-03-31 14:05:00,
2015-03-31 07:10:00,58.1,53.3,29.96,SW,216,5.0,-999.0,84,0.00,,,0.00,24,WeatherHawk,2015-03-31 14:10:00,
2015-03-31 07:15:00,58.1,53.3,29.96,SSE,150,2.0,-999.0,84,0.00,,,0.00,35,WeatherHawk,2015-03-31 14:15:00,
2015-03-31 07:20:00,58.1,53.6,29.97,North,353,2.0,-999.0,85,0.00,,,0.00,56,WeatherHawk,2015-03-31 14:20:00,
2015-03-31 07:25:00,58.3,53.8,29.97,WNW,293,4.0,-999.0,85,0.00,,,0.00,63,WeatherHawk,2015-03-31 14:25:00,
2015-03-31 07:30:00,58.6,53.8,29.97,SW,221,3.0,-999.0,84,0.00,,,0.00,66,WeatherHawk,2015-03-31 14:30:00,
2015-03-31 07:35:00,58.6,53.8,29.97,South,189,1.0,-999.0,84,0.00,,,0.00,64,WeatherHawk,2015-03-31 14:35:00,
2015-03-31 07:40:00,59.0,53.8,29.97,WSW,254,0.0,-999.0,83,0.00,,,0.00,55,WeatherHawk,2015-03-31 14:40:00,
2015-03-31 07:45:00,59.0,53.8,29.98,West,260,4.0,-999.0,83,0.00,,,0.00,45,WeatherHawk,2015-03-31 14:45:00,
2015-03-31 07:50:00,59.0,53.8,29.98,West,277,2.0,-999.0,83,0.00,,,0.00,45,WeatherHawk,2015-03-31 14:50:00,
2015-03-31 07:55:00,59.0,53.5,29.98,WNW,302,2.0,-999.0,82,0.00,,,0.00,60,WeatherHawk,2015-03-31 14:55:00,
2015-03-31 08:00:00,58.8,53.7,29.98,SSW,205,2.0,-999.0,83,0.00,,,0.00,67,WeatherHawk,2015-03-31 15:00:00,
2015-03-31 08:05:00,59.0,53.8,29.98,WNW,284,2.0,-999.0,83,0.00,,,0.00,65,WeatherHawk,2015-03-31 15:05:00,
2015-03-31 08:10:00,59.2,53.7,29.99,NNW,346,3.0,-999.0,82,0.00,,,0.00,62,WeatherHawk,2015-03-31 15:10:00,
2015-03-31 08:15:00,59.2,53.7,29.99,WNW,295,3.0,-999.0,82,0.00,,,0.00,71,WeatherHawk,2015-03-31 15:15:00,
2015-03-31 08:20:00,59.0,53.5,29.99,NNW,328,1.0,-999.0,82,0.00,,,0.00,89,WeatherHawk,2015-03-31 15:20:00,
2015-03-31 08:25:00,59.0,53.2,29.99,NNW,329,5.0,-999.0,81,0.00,,,0.00,98,WeatherHawk,2015-03-31 15:25:00,
2015-03-31 08:30:00,58.8,53.3,29.99,NW,308,1.0,-999.0,82,0.00,,,0.00,109,WeatherHawk,2015-03-31 15:30:00,
2015-03-31 08:35:00,59.0,53.2,29.99,SW,234,1.0,-999.0,81,0.00,,,0.00,130,WeatherHawk,2015-03-31 15:35:00,
2015-03-31 08:40:00,59.4,53.2,29.99,WSW,237,2.0,-999.0,80,0.00,,,0.00,143,WeatherHawk,2015-03-31 15:40:00,
2015-03-31 08:45:00,59.5,53.0,29.99,SW,226,1.0,-999.0,79,0.00,,,0.00,192,WeatherHawk,2015-03-31 15:45:00,
2015-03-31 08:50:00,59.9,53.4,30.00,North,356,1.0,-999.0,79,0.00,,,0.00,176,WeatherHawk,2015-03-31 15:50:00,
2015-03-31 08:55:00,60.3,53.0,30.00,West,277,1.0,-999.0,77,0.00,,,0.00,213,WeatherHawk,2015-03-31 15:55:00,
2015-03-31 09:00:00,60.6,53.4,30.00,WNW,302,0.0,-999.0,77,0.00,,,0.00,235,WeatherHawk,2015-03-31 16:00:00,
2015-03-31 09:05:00,61.2,53.2,30.00,SSW,194,2.0,-999.0,75,0.00,,,0.00,245,WeatherHawk,2015-03-31 16:05:00,
2015-03-31 09:10:00,61.0,53.0,30.00,SE,143,3.0,-999.0,75,0.00,,,0.00,243,WeatherHawk,2015-03-31 16:10:00,
2015-03-31 09:15:00,61.2,53.2,30.00,South,170,2.0,-999.0,75,0.00,,,0.00,262,WeatherHawk,2015-03-31 16:15:00,
2015-03-31 09:20:00,61.0,52.6,30.00,SSE,149,2.0,-999.0,74,0.00,,,0.00,291,WeatherHawk,2015-03-31 16:20:00,
2015-03-31 09:25:00,61.7,53.3,30.00,SSW,211,2.0,-999.0,74,0.00,,,0.00,312,WeatherHawk,2015-03-31 16:25:00,
2015-03-31 09:30:00,61.5,53.2,30.00,SSE,149,3.0,-999.0,74,0.00,,,0.00,321,WeatherHawk,2015-03-31 16:30:00,
2015-03-31 09:35:00,62.1,52.9,30.01,East,100,3.0,-999.0,72,0.00,,,0.00,352,WeatherHawk,2015-03-31 16:35:00,
2015-03-31 09:40:00,62.8,53.6,30.01,East,99,3.0,-999.0,72,0.00,,,0.00,321,WeatherHawk,2015-03-31 16:40:00,
2015-03-31 09:45:00,62.4,53.3,30.01,ESE,121,3.0,-999.0,72,0.00,,,0.00,520,WeatherHawk,2015-03-31 16:45:00,
2015-03-31 09:50:00,62.6,53.1,30.01,ENE,76,2.0,-999.0,71,0.00,,,0.00,602,WeatherHawk,2015-03-31 16:50:00,
2015-03-31 09:55:00,63.1,52.8,30.01,East,100,4.0,-999.0,69,0.00,,,0.00,592,WeatherHawk,2015-03-31 16:55:00,
2015-03-31 10:00:00,62.6,53.1,30.01,East,82,6.0,-999.0,71,0.00,,,0.00,602,WeatherHawk,2015-03-31 17:00:00,
2015-03-31 10:05:00,63.9,53.1,30.01,East,82,3.0,-999.0,68,0.00,,,0.00,727,WeatherHawk,2015-03-31 17:05:00,
2015-03-31 10:10:00,64.8,53.1,30.02,ENE,69,6.0,-999.0,66,0.00,,,0.00,717,WeatherHawk,2015-03-31 17:10:00,
2015-03-31 10:15:00,65.8,53.7,30.02,WSW,241,2.0,-999.0,65,0.00,,,0.00,750,WeatherHawk,2015-03-31 17:15:00,
2015-03-31 10:20:00,65.3,52.4,30.02,South,189,3.0,-999.0,63,0.00,,,0.00,762,WeatherHawk,2015-03-31 17:20:00,
2015-03-31 10:25:00,65.5,52.5,30.02,WNW,287,2.0,-999.0,63,0.00,,,0.00,803,WeatherHawk,2015-03-31 17:25:00,
2015-03-31 10:30:00,66.0,52.6,30.02,ESE,102,4.0,-999.0,62,0.00,,,0.00,831,WeatherHawk,2015-03-31 17:30:00,
2015-03-31 10:35:00,66.6,52.7,30.02,NNE,33,2.0,-999.0,61,0.00,,,0.00,595,WeatherHawk,2015-03-31 17:35:00,
2015-03-31 10:40:00,66.9,52.6,30.02,North,1,2.0,-999.0,60,0.00,,,0.00,772,WeatherHawk,2015-03-31 17:40:00,
2015-03-31 10:45:00,67.8,52.5,30.02,East,100,1.0,-999.0,58,0.00,,,0.00,798,WeatherHawk,2015-03-31 17:45:00,
2015-03-31 10:50:00,68.4,52.0,30.02,SSW,201,1.0,-999.0,56,0.00,,,0.00,877,WeatherHawk,2015-03-31 17:50:00,
2015-03-31 10:55:00,68.0,51.7,30.02,WSW,242,4.0,-999.0,56,0.00,,,0.00,555,WeatherHawk,2015-03-31 17:55:00,
2015-03-31 11:00:00,66.9,51.7,30.02,WSW,239,3.0,-999.0,58,0.00,,,0.00,750,WeatherHawk,2015-03-31 18:00:00,
2015-03-31 11:05:00,67.6,51.4,30.02,NW,319,5.0,-999.0,56,0.00,,,0.00,889,WeatherHawk,2015-03-31 18:05:00,
2015-03-31 11:10:00,68.5,52.2,30.01,West,264,3.0,-999.0,56,0.00,,,0.00,828,WeatherHawk,2015-03-31 18:10:00,
2015-03-31 11:15:00,68.2,51.4,30.01,SSW,205,4.0,-999.0,55,0.00,,,0.00,758,WeatherHawk,2015-03-31 18:15:00,
2015-03-31 11:20:00,68.0,51.7,30.01,East,96,2.0,-999.0,56,0.00,,,0.00,901,WeatherHawk,2015-03-31 18:20:00,
2015-03-31 11:25:00,68.9,52.5,30.01,SE,132,1.0,-999.0,56,0.00,,,0.00,901,WeatherHawk,2015-03-31 18:25:00,
2015-03-31 11:30:00,70.2,52.7,30.01,ESE,122,3.0,-999.0,54,0.00,,,0.00,789,WeatherHawk,2015-03-31 18:30:00,
2015-03-31 11:35:00,69.8,52.4,30.01,ESE,103,1.0,-999.0,54,0.00,,,0.00,792,WeatherHawk,2015-03-31 18:35:00,
2015-03-31 11:40:00,70.0,53.1,30.01,South,185,5.0,-999.0,55,0.00,,,0.00,997,WeatherHawk,2015-03-31 18:40:00,
2015-03-31 11:45:00,70.0,53.1,30.01,South,190,4.0,-999.0,55,0.00,,,0.00,819,WeatherHawk,2015-03-31 18:45:00,
2015-03-31 11:50:00,70.2,53.2,30.01,South,176,5.0,-999.0,55,0.00,,,0.00,625,WeatherHawk,2015-03-31 18:50:00,
2015-03-31 11:55:00,69.8,53.4,30.00,SSW,203,3.0,-999.0,56,0.00,,,0.00,779,WeatherHawk,2015-03-31 18:55:00,
2015-03-31 12:00:00,70.7,53.7,30.00,SW,216,3.0,-999.0,55,0.00,,,0.00,1014,WeatherHawk,2015-03-31 19:00:00,
2015-03-31 12:05:00,70.9,52.9,30.01,SSW,208,2.0,-999.0,53,0.00,,,0.00,957,WeatherHawk,2015-03-31 19:05:00,
2015-03-31 12:10:00,70.5,52.6,30.00,ESE,113,4.0,-999.0,53,0.00,,,0.00,867,WeatherHawk,2015-03-31 19:10:00,
2015-03-31 12:15:00,70.2,52.2,30.00,SE,135,4.0,-999.0,53,0.00,,,0.00,855,WeatherHawk,2015-03-31 19:15:00,
2015-03-31 12:20:00,69.6,52.7,30.00,SSW,208,7.0,-999.0,55,0.00,,,0.00,913,WeatherHawk,2015-03-31 19:20:00,
2015-03-31 12:25:00,70.0,53.6,30.00,West,263,6.0,-999.0,56,0.00,,,0.00,961,WeatherHawk,2015-03-31 19:25:00,
2015-03-31 12:30:00,69.6,53.2,30.00,SSW,200,9.0,-999.0,56,0.00,,,0.00,979,WeatherHawk,2015-03-31 19:30:00,
2015-03-31 12:35:00,69.4,53.0,30.00,SSW,210,8.0,-999.0,56,0.00,,,0.00,831,WeatherHawk,2015-03-31 19:35:00,
2015-03-31 12:40:00,69.4,53.5,30.00,WSW,238,7.0,-999.0,57,0.00,,,0.00,994,WeatherHawk,2015-03-31 19:40:00,
2015-03-31 12:45:00,69.4,53.0,30.00,SSW,197,8.0,-999.0,56,0.00,,,0.00,956,WeatherHawk,2015-03-31 19:45:00,
2015-03-31 12:50:00,70.2,53.7,29.99,SW,226,6.0,-999.0,56,0.00,,,0.00,967,WeatherHawk,2015-03-31 19:50:00,
2015-03-31 12:55:00,70.0,53.6,29.99,WSW,255,3.0,-999.0,56,0.00,,,0.00,1001,WeatherHawk,2015-03-31 19:55:00,
2015-03-31 13:00:00,69.6,52.7,29.99,SW,223,11.0,-999.0,55,0.00,,,0.00,992,WeatherHawk,2015-03-31 20:00:00,
2015-03-31 13:05:00,69.3,52.9,29.99,SW,223,6.0,-999.0,56,0.00,,,0.00,989,WeatherHawk,2015-03-31 20:05:00,
2015-03-31 13:10:00,69.4,53.0,29.99,SSW,210,7.0,-999.0,56,0.00,,,0.00,990,WeatherHawk,2015-03-31 20:10:00,
2015-03-31 13:15:00,70.2,52.7,29.99,West,265,8.0,-999.0,54,0.00,,,0.00,991,WeatherHawk,2015-03-31 20:15:00,
2015-03-31 13:20:00,69.8,52.4,29.99,SW,218,10.0,-999.0,54,0.00,,,0.00,991,WeatherHawk,2015-03-31 20:20:00,
2015-03-31 13:25:00,69.8,52.9,29.98,WSW,251,7.0,-999.0,55,0.00,,,0.00,994,WeatherHawk,2015-03-31 20:25:00,
2015-03-31 13:30:00,69.1,52.2,29.98,SSW,210,9.0,-999.0,55,0.00,,,0.00,1003,WeatherHawk,2015-03-31 20:30:00,
2015-03-31 13:35:00,69.4,52.6,29.98,WSW,237,7.0,-999.0,55,0.00,,,0.00,971,WeatherHawk,2015-03-31 20:35:00,
2015-03-31 13:40:00,69.8,52.9,29.98,SSW,209,5.0,-999.0,55,0.00,,,0.00,1008,WeatherHawk,2015-03-31 20:40:00,
2015-03-31 13:45:00,69.3,51.9,29.98,SW,227,8.0,-999.0,54,0.00,,,0.00,852,WeatherHawk,2015-03-31 20:45:00,
2015-03-31 13:50:00,70.0,52.1,29.98,SW,218,8.0,-999.0,53,0.00,,,0.00,889,WeatherHawk,2015-03-31 20:50:00,
2015-03-31 13:55:00,69.6,52.2,29.97,WSW,252,4.0,-999.0,54,0.00,,,0.00,920,WeatherHawk,2015-03-31 20:55:00,
2015-03-31 14:00:00,69.6,52.2,29.97,SSW,196,7.0,-999.0,54,0.00,,,0.00,780,WeatherHawk,2015-03-31 21:00:00,
2015-03-31 14:05:00,69.6,52.2,29.97,SW,222,6.0,-999.0,54,0.00,,,0.00,839,WeatherHawk,2015-03-31 21:05:00,
2015-03-31 14:10:00,69.6,52.2,29.97,South,185,8.0,-999.0,54,0.00,,,0.00,901,WeatherHawk,2015-03-31 21:10:00,
2015-03-31 14:15:00,70.3,52.4,29.97,SSW,208,6.0,-999.0,53,0.00,,,0.00,745,WeatherHawk,2015-03-31 21:15:00,
2015-03-31 14:20:00,69.8,51.9,29.97,SSW,195,9.0,-999.0,53,0.00,,,0.00,759,WeatherHawk,2015-03-31 21:20:00,
2015-03-31 14:25:00,69.6,51.7,29.97,SSW,211,9.0,-999.0,53,0.00,,,0.00,842,WeatherHawk,2015-03-31 21:25:00,
2015-03-31 14:30:00,69.3,51.9,29.96,SSW,201,11.0,-999.0,54,0.00,,,0.00,873,WeatherHawk,2015-03-31 21:30:00,
2015-03-31 14:35:00,69.1,51.7,29.96,SSW,212,7.0,-999.0,54,0.00,,,0.00,842,WeatherHawk,2015-03-31 21:35:00,
2015-03-31 14:40:00,69.6,51.7,29.96,SSW,194,6.0,-999.0,53,0.00,,,0.00,855,WeatherHawk,2015-03-31 21:40:00,
2015-03-31 14:45:00,69.3,51.9,29.96,WSW,240,8.0,-999.0,54,0.00,,,0.00,839,WeatherHawk,2015-03-31 21:45:00,
2015-03-31 14:50:00,69.8,52.9,29.96,WSW,244,6.0,-999.0,55,0.00,,,0.00,820,WeatherHawk,2015-03-31 21:50:00,
2015-03-31 14:55:00,69.4,52.1,29.96,SW,231,10.0,-999.0,54,0.00,,,0.00,807,WeatherHawk,2015-03-31 21:55:00,
2015-03-31 15:00:00,70.0,52.6,29.96,SSW,204,13.0,-999.0,54,0.00,,,0.00,822,WeatherHawk,2015-03-31 22:00:00,
2015-03-31 15:05:00,68.9,52.5,29.96,SSW,212,9.0,-999.0,56,0.00,,,0.00,827,WeatherHawk,2015-03-31 22:05:00,
2015-03-31 15:10:00,69.6,53.7,29.96,SW,215,5.0,-999.0,57,0.00,,,0.00,796,WeatherHawk,2015-03-31 22:10:00,
2015-03-31 15:15:00,68.9,53.5,29.96,West,259,6.0,-999.0,58,0.00,,,0.00,807,WeatherHawk,2015-03-31 22:15:00,
2015-03-31 15:20:00,69.3,53.4,29.96,SW,215,4.0,-999.0,57,0.00,,,0.00,747,WeatherHawk,2015-03-31 22:20:00,
2015-03-31 15:25:00,68.4,53.5,29.96,West,260,13.0,-999.0,59,0.00,,,0.00,778,WeatherHawk,2015-03-31 22:25:00,
2015-03-31 15:30:00,68.2,53.8,29.95,SSW,212,8.0,-999.0,60,0.00,,,0.00,684,WeatherHawk,2015-03-31 22:30:00,
2015-03-31 15:35:00,67.6,53.7,29.95,South,188,10.0,-999.0,61,0.00,,,0.00,705,WeatherHawk,2015-03-31 22:35:00,
2015-03-31 15:40:00,68.2,54.2,29.95,SSW,200,9.0,-999.0,61,0.00,,,0.00,739,WeatherHawk,2015-03-31 22:40:00,
2015-03-31 15:45:00,68.4,53.9,29.95,SSW,213,9.0,-999.0,60,0.00,,,0.00,661,WeatherHawk,2015-03-31 22:45:00,
2015-03-31 15:50:00,67.6,53.2,29.95,SSW,198,10.0,-999.0,60,0.00,,,0.00,668,WeatherHawk,2015-03-31 22:50:00,
2015-03-31 15:55:00,67.3,53.4,29.95,SSW,200,9.0,-999.0,61,0.00,,,0.00,632,WeatherHawk,2015-03-31 22:55:00,
2015-03-31 16:00:00,67.1,53.2,29.95,SSW,194,10.0,-999.0,61,0.00,,,0.00,644,WeatherHawk,2015-03-31 23:00:00,
2015-03-31 16:05:00,67.5,53.1,29.95,SSW,200,13.0,-999.0,60,0.00,,,0.00,650,WeatherHawk,2015-03-31 23:05:00,
2015-03-31 16:10:00,66.7,53.3,29.95,SSW,210,6.0,-999.0,62,0.00,,,0.00,571,WeatherHawk,2015-03-31 23:10:00,
2015-03-31 16:15:00,66.6,52.7,29.95,South,186,7.0,-999.0,61,0.00,,,0.00,586,WeatherHawk,2015-03-31 23:15:00,
2015-03-31 16:20:00,66.7,52.9,29.95,SSW,195,5.0,-999.0,61,0.00,,,0.00,595,WeatherHawk,2015-03-31 23:20:00,
2015-03-31 16:25:00,66.4,53.0,29.95,SSW,200,8.0,-999.0,62,0.00,,,0.00,567,WeatherHawk,2015-03-31 23:25:00,
2015-03-31 16:30:00,66.9,53.0,29.95,SSW,201,5.0,-999.0,61,0.00,,,0.00,551,WeatherHawk,2015-03-31 23:30:00,
2015-03-31 16:35:00,66.7,52.9,29.95,SSW,207,7.0,-999.0,61,0.00,,,0.00,535,WeatherHawk,2015-03-31 23:35:00,
2015-03-31 16:40:00,66.9,52.6,29.95,SSW,192,9.0,-999.0,60,0.00,,,0.00,508,WeatherHawk,2015-03-31 23:40:00,
2015-03-31 16:45:00,66.7,52.9,29.95,SW,230,7.0,-999.0,61,0.00,,,0.00,486,WeatherHawk,2015-03-31 23:45:00,
2015-03-31 16:50:00,66.9,53.0,29.95,South,190,9.0,-999.0,61,0.00,,,0.00,475,WeatherHawk,2015-03-31 23:50:00,
2015-03-31 16:55:00,66.6,52.7,29.95,SW,220,10.0,-999.0,61,0.00,,,0.00,459,WeatherHawk,2015-03-31 23:55:00,
2015-03-31 17:00:00,65.8,53.3,29.95,SSW,197,6.0,-999.0,64,0.00,,,0.00,437,WeatherHawk,2015-04-01 00:00:00,
2015-03-31 17:05:00,65.7,53.1,29.95,SSW,198,11.0,-999.0,64,0.00,,,0.00,416,WeatherHawk,2015-04-01 00:05:00,
2015-03-31 17:10:00,66.0,53.5,29.95,SW,218,8.0,-999.0,64,0.00,,,0.00,394,WeatherHawk,2015-04-01 00:10:00,
2015-03-31 17:15:00,66.6,53.1,29.95,SW,216,5.0,-999.0,62,0.00,,,0.00,366,WeatherHawk,2015-04-01 00:15:00,
2015-03-31 17:20:00,66.0,52.6,29.95,SW,223,7.0,-999.0,62,0.00,,,0.00,349,WeatherHawk,2015-04-01 00:20:00,
2015-03-31 17:25:00,65.7,52.7,29.95,SSW,201,7.0,-999.0,63,0.00,,,0.00,324,WeatherHawk,2015-04-01 00:25:00,
2015-03-31 17:30:00,65.5,53.0,29.95,SSW,195,5.0,-999.0,64,0.00,,,0.00,321,WeatherHawk,2015-04-01 00:30:00,
2015-03-31 17:35:00,65.7,52.7,29.95,SSW,199,10.0,-999.0,63,0.00,,,0.00,300,WeatherHawk,2015-04-01 00:35:00,
2015-03-31 17:40:00,65.3,53.2,29.95,WSW,239,4.0,-999.0,65,0.00,,,0.00,281,WeatherHawk,2015-04-01 00:40:00,
2015-03-31 17:45:00,65.1,53.1,29.95,SW,225,5.0,-999.0,65,0.00,,,0.00,256,WeatherHawk,2015-04-01 00:45:00,
2015-03-31 17:50:00,64.9,52.9,29.95,SW,215,8.0,-999.0,65,0.00,,,0.00,240,WeatherHawk,2015-04-01 00:50:00,
2015-03-31 17:55:00,64.8,53.1,29.95,SW,221,9.0,-999.0,66,0.00,,,0.00,222,WeatherHawk,2015-04-01 00:55:00,
2015-03-31 18:00:00,64.2,53.0,29.95,SSW,196,7.0,-999.0,67,0.00,,,0.00,194,WeatherHawk,2015-04-01 01:00:00,
2015-03-31 18:05:00,64.2,53.0,29.95,SW,221,8.0,-999.0,67,0.00,,,0.00,183,WeatherHawk,2015-04-01 01:05:00,
2015-03-31 18:10:00,64.0,53.3,29.95,SSW,198,5.0,-999.0,68,0.00,,,0.00,163,WeatherHawk,2015-04-01 01:10:00,
2015-03-31 18:15:00,64.2,53.4,29.96,SSW,208,6.0,-999.0,68,0.00,,,0.00,118,WeatherHawk,2015-04-01 01:15:00,
2015-03-31 18:20:00,63.7,52.9,29.95,SSE,163,6.0,-999.0,68,0.00,,,0.00,125,WeatherHawk,2015-04-01 01:20:00,
2015-03-31 18:25:00,63.3,53.0,29.95,South,171,4.0,-999.0,69,0.00,,,0.00,104,WeatherHawk,2015-04-01 01:25:00,
2015-03-31 18:30:00,63.1,52.8,29.95,ESE,123,3.0,-999.0,69,0.00,,,0.00,87,WeatherHawk,2015-04-01 01:30:00,
2015-03-31 18:35:00,63.0,53.0,29.95,SSE,167,2.0,-999.0,70,0.00,,,0.00,75,WeatherHawk,2015-04-01 01:35:00,
2015-03-31 18:40:00,63.0,53.0,29.95,South,171,2.0,-999.0,70,0.00,,,0.00,46,WeatherHawk,2015-04-01 01:40:00,
2015-03-31 18:45:00,62.8,52.8,29.95,SE,133,4.0,-999.0,70,0.00,,,0.00,35,WeatherHawk,2015-04-01 01:45:00,
2015-03-31 18:50:00,62.4,52.9,29.95,South,191,4.0,-999.0,71,0.00,,,0.00,27,WeatherHawk,2015-04-01 01:50:00,
2015-03-31 18:55:00,62.2,52.7,29.95,South,173,3.0,-999.0,71,0.00,,,0.00,15,WeatherHawk,2015-04-01 01:55:00,
2015-03-31 19:00:00,62.1,52.9,29.95,SSW,209,3.0,-999.0,72,0.00,,,0.00,5,WeatherHawk,2015-04-01 02:00:00,
2015-03-31 19:05:00,62.1,52.9,29.94,SSW,199,4.0,-999.0,72,0.00,,,0.00,5,WeatherHawk,2015-04-01 02:05:00,
2015-03-31 19:10:00,61.7,52.6,29.95,SSW,196,4.0,-999.0,72,0.00,,,0.00,3,WeatherHawk,2015-04-01 02:10:00,
2015-03-31 19:15:00,61.5,52.8,29.94,SSW,196,7.0,-999.0,73,0.00,,,0.00,1,WeatherHawk,2015-04-01 02:15:00,
2015-03-31 19:20:00,61.3,53.0,29.94,SSW,196,4.0,-999.0,74,0.00,,,0.00,1,WeatherHawk,2015-04-01 02:20:00,
2015-03-31 19:25:00,61.2,52.8,29.94,SSW,192,6.0,-999.0,74,0.00,,,0.00,1,WeatherHawk,2015-04-01 02:25:00,
2015-03-31 19:30:00,61.2,53.2,29.94,South,174,2.0,-999.0,75,0.00,,,0.00,1,WeatherHawk,2015-04-01 02:30:00,
2015-03-31 19:35:00,60.8,52.8,29.94,SSW,198,7.0,-999.0,75,0.00,,,0.00,0,WeatherHawk,2015-04-01 02:35:00,
2015-03-31 19:40:00,60.8,52.8,29.94,South,190,4.0,-999.0,75,0.00,,,0.00,0,WeatherHawk,2015-04-01 02:40:00,
2015-03-31 19:45:00,60.8,53.2,29.94,South,190,4.0,-999.0,76,0.00,,,0.00,0,WeatherHawk,2015-04-01 02:45:00,
2015-03-31 19:50:00,60.8,53.2,29.95,SSW,210,4.0,-999.0,76,0.00,,,0.00,0,WeatherHawk,2015-04-01 02:50:00,
2015-03-31 19:55:00,60.8,53.2,29.94,SSW,199,6.0,-999.0,76,0.00,,,0.00,0,WeatherHawk,2015-04-01 02:55:00,
2015-03-31 20:00:00,60.8,53.2,29.94,South,179,4.0,-999.0,76,0.00,,,0.00,0,WeatherHawk,2015-04-01 03:00:00,
2015-03-31 20:05:00,60.6,53.0,29.95,South,183,6.0,-999.0,76,0.00,,,0.00,0,WeatherHawk,2015-04-01 03:05:00,
2015-03-31 20:10:00,60.6,53.0,29.95,SSW,202,9.0,-999.0,76,0.00,,,0.00,0,WeatherHawk,2015-04-01 03:10:00,
2015-03-31 20:15:00,60.3,53.0,29.95,SSW,196,5.0,-999.0,77,0.00,,,0.00,1,WeatherHawk,2015-04-01 03:15:00,
2015-03-31 20:20:00,60.3,53.0,29.95,SSW,200,7.0,-999.0,77,0.00,,,0.00,0,WeatherHawk,2015-04-01 03:20:00,
2015-03-31 20:25:00,60.1,52.8,29.94,South,169,4.0,-999.0,77,0.00,,,0.00,0,WeatherHawk,2015-04-01 03:25:00,